Location: Bacharowice
(49.9333°N, 19.5833°E)
Time: 20:29:13
(UTC+00:00)

USA 305 - Visible Passes

Search period start: 19 September 2021 00:00
Search period end: 29 September 2021 00:00
Orbit: 560 x 577 km, 54.0° (Epoch: 16 September)

Date Brightness Start Highest point End Pass type
(mag) Time Alt. Az. Time Alt. Az. Time Alt. Az.
19 Sep 3.6 18:48:29 10° WNW 18:52:35 48° N 18:54:08 32° NE visible
19 Sep 5.2 20:28:40 10° WNW 20:30:09 21° WNW 20:30:09 21° WNW visible
20 Sep 3.6 18:49:11 10° WNW 18:53:17 48° N 18:54:32 36° NE visible
20 Sep 5.4 20:29:16 10° WNW 20:30:33 19° WNW 20:30:33 19° WNW visible
21 Sep 3.4 17:09:27 10° W 17:13:37 59° NNW 17:17:49 10° ENE visible
21 Sep 3.5 18:49:51 10° WNW 18:53:58 50° N 18:54:55 41° NE visible
21 Sep 5.5 20:29:51 10° WNW 20:30:57 18° WNW 20:30:57 18° WNW visible
22 Sep 3.5 17:10:09 10° W 17:14:17 52° N 17:18:27 10° ENE visible
22 Sep 3.3 18:50:29 10° WNW 18:54:38 54° NNE 18:55:18 48° NE visible
22 Sep 5.6 20:30:28 10° WNW 20:31:19 16° WNW 20:31:19 16° WNW visible
23 Sep 3.6 17:10:51 10° W 17:14:57 49° N 17:19:05 10° ENE visible
23 Sep 3.0 18:51:05 10° WNW 18:55:17 61° NNE 18:55:41 58° NE visible
23 Sep 5.7 20:31:05 10° WNW 20:31:42 14° WNW 20:31:42 14° WNW visible
24 Sep 3.6 17:11:32 10° WNW 17:15:37 47° N 17:19:44 10° ENE visible
24 Sep 2.8 18:51:40 10° WNW 18:55:54 72° NNE 18:56:04 71° NE visible
24 Sep 5.9 20:31:46 10° WNW 20:32:06 12° WNW 20:32:06 12° WNW visible
25 Sep 3.5 17:12:11 10° WNW 17:16:17 48° N 17:20:25 10° E visible
25 Sep 2.7 18:52:14 10° WNW 18:56:29 88° NNE 18:56:29 88° NNE visible
26 Sep 3.4 17:12:49 10° WNW 17:16:57 51° N 17:20:53 11° E visible
26 Sep 2.9 18:52:49 10° WNW 18:56:55 73° SW 18:56:55 73° SW visible
27 Sep 3.2 17:13:25 10° WNW 17:17:35 56° NNE 17:21:21 12° E visible
27 Sep 3.2 18:53:24 10° WNW 18:57:23 56° SW 18:57:23 56° SW visible
28 Sep 3.0 17:13:59 10° WNW 17:18:12 65° NNE 17:21:52 13° E visible
28 Sep 3.7 18:54:01 10° WNW 18:57:53 41° SW 18:57:53 41° SW visible
